Showing default

SUPERVIEW NEO-1 03, 63125

Orbit data source: Space-Track

SUPERVIEW NEO-1 03, 63125 is a payload satellite owned by Siwei (CN) in SSO that was launched on Thu, 27 Feb 2025 UTC via a CHANG ZHENG 2C launch vehicle from the Jiuquan Satellite Launch Center, China (JSC). Payload-class satellites include a variety of spacecraft equipped with specific instruments for various scientific and technological missions. These include communications satellites like Starlink; space stations such as the ISS; scientific satellites like the Hubble; Earth observation satellites from companies like Planet Labs, Umbra, and HawkEye 360; GPS; miniature CubeSats for education and research; and military/defense satellites.

Loading next visibility...
Identifier
63125, 2025-040A
Orbit
SSO
Country
Flag of CNCN / PRC
Related business
Manufacturer
SAST
Mission
Operational Commercial Imaging
Bus & Motor
SIWEI, Unknown motor
Mass
540 kg wet, ~500 kg dry
Launch date (UTC)
2025-02-27 (1 year ago)
Launch vehicle
CHANG ZHENG 2C
Launch site
Jiuquan Satellite Launch Center, China (JSC)
Object type
Payload
Rocket body
Debris
Shape & HBR
Box, 4.7 m
Radar Cross Section
0.375 m², Large (>1 m²)

Expand to show TLE details & history
Last TLE update: 5 hours ago

TLE from 5 hours ago
0 SUPERVIEW NEO-1 03
1 63125U 25040A   26119.47263531  .00001334  00000-0  62137-4 0  9992
2 63125  97.3443 235.0411 0001704  84.6430 275.5001 15.21593051 64778
Epoch: 2026-04-29T11:20Z
TLE epoch observation values (Epoch: 2026-04-29T11:20:35.690Z)
Latitude
Longitude
-152.54071°
Altitude
504.017 km
Speed
7.612 km/s
True Right ascension
15h 40m 09s
True Declination
0° 00' 00"
Sunlit
Object was in full shadow at epoch
Visualization orbit readout
Latitude
Unknown
Longitude
Unknown
Altitude
Unknown
Speed
Unknown
Apparent Right ascension
Unknown
Apparent Declination
Unknown
Sunlit
N/A
Visualization observer readout
Local Sidereal Time
23:40:34
Azimuth
Unknown
Elevation
Unknown
Doppler factor
Unknown
Orbital elements
Apogee altitude
499.168 km
Perigee altitude
496.824 km
Semi-major axis
6,876.133 km
Eccentricity
0.00017
Inclination
97.3443°
RAAN
235.0411°
Arg. of periapsis
84.643°
True anomaly
275.48066°
Mean anomaly
275.5001°
Eccentric anomaly
275.49038°
Mean motion
3.80651 °/min
Orbital period
94.57 mins
BSTAR
0.000062137
Loading maneuver chart data...
Computing Atmospheric mass density...
Loading historical data...
Loading historical data...
Loading historical data...
Loading historical data...
Loading historical data...
Loading historical data...
Loading historical data...
Other satellites on launch #40 in the year 2025 (2025-02-27 UTC)

Documentation

Showing up to 5 results
|